Project,Study,Ord_Occ,Event_Num,Cast_ID,Date_Time_UTC,Date_Time_PST,Lat_Dec,Lon_Dec,Sta_ID,Line,Sta,Depth,Pressure,PrQ,Temp1,Temp1Q,Temp2,Temp2Q,TempAve,Salt1,Salt1Q,Salt1_Corr,Salt2,Salt2Q,Salt2_Corr,SaltAve_Corr,Ox1,Ox1Q,Ox1_CruiseCorr,Ox1_StaCorr,Ox2,Ox2Q,Ox2_CruiseCorr,Ox2_StaCorr,OxAve_StaCorr,Ox1uM,Ox1uM_CruiseCorr,Ox1uM_StaCorr,Ox2uM,Ox2uM_CruiseCorr,Ox2uM_StaCorr,OxAveuM_StaCorr,FluorV,FluorQ,EstChl_CruiseCorr,EstChl_StaCorr,ISUSV,ISUSQ,EstNO3_CruiseCorr,EstNO3_StaCorr,SigThetaTS1,SigThetaTS1Q,SigThetaTS2,SigThetaTS2Q,BAT,XMiss,TransQ,pH,pHQ,SPAR,SPARQ,PAR,PARQ,PoT1,PoT2,DynHt,SVA,OxSat1,OxSat2,BTL_Depth,BTL_Temp,SaltB,OxB,OxBuM,Chl-a,Phaeo,NO3,NO2,NH4,PO4,SIL
CalCOFI,2007SR,010,11,2007_010d,14-Jul-2020 21:53:03,14-Jul-2020 13:53:03,32.01351,-119.23380,093.3 055.0,093.3,055.0,8.000,8.056,,17.3821,,17.3825,,17.3823,33.7161,,33.7163,33.7163,,33.7179,33.7171,5.6494,,5.8854,5.8858,4.1255,,5.9076,4.8635,5.3747,246.281,256.6046,231.8313,179.848,436.8234,179.6468,205.7391,0.0842,,0.5653,0.5389,0.2432,,0.0000,0.000,24.4387,,24.4387,,0.9128,79.5966,,8.234,,1.8614E+03,,1.5384E+01,,17.3807,17.3812,0.0015,,103.152,75.328,2,17.307,33.7030,5.896,257.30,0.801,0.082,0.0,0.00,0.20,0.10,0.35
CalCOFI,2007SR,010,11,2007_010d,14-Jul-2020 21:53:05,14-Jul-2020 13:53:05,32.01351,-119.23380,093.3 055.0,093.3,055.0,9.000,9.063,,17.3828,,17.3839,,17.3834,33.7160,,33.7162,33.7163,,33.7179,33.7171,5.6490,,5.8849,5.8854,4.1256,,5.9078,4.8637,5.3746,246.267,256.5900,231.8184,179.853,436.7891,179.6558,205.7371,0.0869,,0.5971,0.5616,0.2468,,0.0000,0.000,24.4384,,24.4384,,0.9122,79.6076,,8.234,,1.8736E+03,,1.2551E+01,,17.3813,17.3824,0.0050,,103.147,75.332,,,,,,,,,,,,
CalCOFI,2007SR,010,11,2007_010d,14-Jul-2020 21:53:07,14-Jul-2020 13:53:07,32.01352,-119.23380,093.3 055.0,093.3,055.0,10.000,10.070,,17.3718,,17.3733,,17.3726,33.7154,,33.7156,33.7154,,33.7170,33.7163,5.6387,,5.8742,5.8747,4.1262,,5.9093,4.8650,5.3699,245.817,256.1203,231.4038,179.879,435.6885,179.7023,205.5531,0.0925,,0.6630,0.6072,0.2508,,0.0000,0.000,24.4406,,24.4403,,0.9106,79.6401,,8.234,,1.9084E+03,,1.1044E+01,,17.3702,17.3717,0.0085,,102.937,75.327,,,,,,,,,,,,
CalCOFI,2007SR,010,11,2007_010d,14-Jul-2020 21:53:09,14-Jul-2020 13:53:09,32.01351,-119.23380,093.3 055.0,093.3,055.0,11.000,11.077,,17.3704,,17.3726,,17.3715,33.7156,,33.7158,33.7161,,33.7177,33.7168,5.6487,,5.8846,5.8851,4.1303,,5.9191,4.8739,5.3795,246.251,256.5733,231.8036,180.058,436.7500,180.0223,205.9130,0.0960,,0.7042,0.6347,0.2772,,0.0000,0.378,24.4412,,24.4410,,0.9208,79.4371,,8.233,,1.8948E+03,,1.0286E+01,,17.3685,17.3707,0.0120,,103.116,75.401,,,,,,,,,,,,
CalCOFI,2007SR,010,11,2007_010d,14-Jul-2020 21:53:11,14-Jul-2020 13:53:11,32.01350,-119.23380,093.3 055.0,093.3,055.0,12.000,12.085,,17.2212,,17.2351,,17.2282,33.6992,,33.6994,33.6998,,33.7014,33.7004,5.7211,,5.9603,5.9609,4.1495,,5.9649,4.9157,5.4383,249.403,259.8637,234.7077,180.894,444.4593,181.5172,208.1125,0.1229,,1.0212,0.8184,0.2735,,0.0000,0.275,24.4641,,24.4613,,0.9660,78.5458,,8.230,,1.8607E+03,,9.0064E+00,,17.2192,17.2331,0.0155,,104.129,75.546,12,16.943,33.6904,5.946,259.47,0.974,0.088,0.0,0.00,0.00,0.11,0.38
CalCOFI,2007SR,010,11,2007_010d,14-Jul-2020 21:53:13,14-Jul-2020 13:53:13,32.01351,-119.23380,093.3 055.0,093.3,055.0,13.000,13.092,,16.9573,,16.9691,,16.9632,33.6808,,33.6810,33.6802,,33.6818,33.6814,5.7438,,5.9840,5.9846,4.1712,,6.0167,4.9628,5.4737,250.381,260.8846,235.6088,181.830,446.8514,183.1909,209.3999,0.1580,,1.4355,0.9858,0.2744,,0.0000,0.300,24.5125,,24.5092,,1.0159,77.5719,,8.228,,1.8811E+03,,7.6307E+00,,16.9552,16.9670,0.0190,,104.002,75.544,,,,,,,,,,,,
CalCOFI,2007SR,010,11,2007_010d,14-Jul-2020 21:53:15,14-Jul-2020 13:53:15,32.01351,-119.23379,093.3 055.0,093.3,055.0,14.000,14.099,,16.8266,,16.8251,,16.8259,33.6712,,33.6714,33.6697,,33.6713,33.6714,5.7460,,5.9863,5.9869,4.1877,,6.0561,4.9987,5.4928,250.469,260.9765,235.6899,182.543,447.0666,184.4658,210.0779,0.1709,,1.5879,1.0267,0.2716,,0.0000,0.222,24.5358,,24.5350,,1.0089,77.7079,,8.225,,1.8875E+03,,6.7823E+00,,16.8243,16.8229,0.0224,,103.772,75.627,,,,,,,,,,,,
CalCOFI,2007SR,010,11,2007_010d,14-Jul-2020 21:53:17,14-Jul-2020 13:53:17,32.01350,-119.23378,093.3 055.0,093.3,055.0,15.000,15.106,,16.7415,,16.7446,,16.7431,33.6628,,33.6630,33.6626,,33.6642,33.6636,5.7451,,5.9854,5.9860,4.1952,,6.0740,5.0150,5.5005,250.430,260.9358,235.6539,182.867,446.9712,185.0452,210.3496,0.1859,,1.7653,1.0604,0.2706,,0.0000,0.194,24.5492,,24.5484,,0.9992,77.8958,,8.222,,1.8690E+03,,6.0624E+00,,16.7390,16.7421,0.0258,,103.581,75.641,,,,,,,,,,,,
CalCOFI,2007SR,010,11,2007_010d,14-Jul-2020 21:53:19,14-Jul-2020 13:53:19,32.01350,-119.23380,093.3 055.0,093.3,055.0,16.000,16.113,,16.6798,,16.6626,,16.6712,33.6568,,33.6570,33.6559,,33.6575,33.6573,5.6673,,5.9041,5.9046,4.2108,,6.1112,5.0490,5.4768,247.035,257.3917,232.5260,183.546,438.6675,186.2593,209.3927,0.2019,,1.9547,1.0798,0.2694,,0.0000,0.160,24.5590,,24.5624,,0.9871,78.1310,,8.219,,1.8641E+03,,5.2760E+00,,16.6772,16.6600,0.0292,,102.053,75.799,,,,,,,,,,,,
CalCOFI,2007SR,010,11,2007_010d,14-Jul-2020 21:53:21,14-Jul-2020 13:53:21,32.01350,-119.23379,093.3 055.0,093.3,055.0,17.000,17.120,,16.5360,,16.5438,,16.5399,33.6382,,33.6384,33.6391,,33.6407,33.6396,5.5853,,5.8184,5.8188,4.2370,,6.1738,5.1059,5.4624,243.456,253.6556,229.2285,184.686,429.9138,188.2977,208.7631,0.2418,,2.4276,1.0540,0.2694,,0.0000,0.160,24.5782,,24.5770,,0.9629,78.6069,,8.217,,1.8621E+03,,4.7207E+00,,16.5332,16.5411,0.0326,,100.284,76.087,,,,,,,,,,,,
CalCOFI,2007SR,010,11,2007_010d,14-Jul-2020 21:53:23,14-Jul-2020 13:53:23,32.01350,-119.23378,093.3 055.0,093.3,055.0,18.000,18.127,,16.1524,,16.1784,,16.1654,33.5909,,33.5911,33.5904,,33.5920,33.5916,5.6206,,5.8553,5.8557,4.2672,,6.2459,5.1716,5.5137,244.982,255.2486,230.6344,185.992,433.6462,190.6330,210.6337,0.2853,,2.9442,0.9052,0.2706,,0.0000,0.194,24.6298,,24.6235,,0.9222,79.4110,,8.213,,1.8654E+03,,4.0941E+00,,16.1496,16.1756,0.0359,,100.137,76.063,,,,,,,,,,,,
CalCOFI,2007SR,010,11,2007_010d,14-Jul-2020 21:53:24,14-Jul-2020 13:53:24,32.01350,-119.23378,093.3 055.0,093.3,055.0,19.000,19.134,,15.7707,,15.7718,,15.7713,33.5629,,33.5631,33.5608,,33.5624,33.5628,5.6628,,5.8994,5.8999,4.2994,,6.3228,5.2416,5.5708,246.806,257.1527,232.3150,187.385,438.1074,193.1239,212.7195,0.2550,,2.5842,1.0222,0.2736,,0.0000,0.278,24.6946,,24.6928,,0.8624,80.6072,,8.207,,1.8792E+03,,3.5752E+00,,15.7677,15.7689,0.0392,,100.120,76.015,,,,,,,,,,,,
CalCOFI,2007SR,010,11,2007_010d,14-Jul-2020 21:53:27,14-Jul-2020 13:53:27,32.01350,-119.23378,093.3 055.0,093.3,055.0,20.000,20.141,,15.6635,,15.6549,,15.6592,33.5549,,33.5551,33.5615,,33.5631,33.5591,5.6260,,5.8609,5.8614,4.3067,,6.3402,5.2575,5.5595,245.198,255.4741,230.8335,187.697,434.1745,193.6817,212.2576,0.2351,,2.3481,1.0658,0.2807,,0.0000,0.476,24.7125,,24.7195,,0.8255,81.3536,,8.198,,1.8919E+03,,3.2068E+00,,15.6605,15.6518,0.0425,,99.255,75.969,,,,,,,,,,,,
CalCOFI,2007SR,010,11,2007_010d,14-Jul-2020 21:53:30,14-Jul-2020 13:53:30,32.01350,-119.23378,093.3 055.0,093.3,055.0,21.000,21.148,,15.5700,,15.6034,,15.5867,33.5440,,33.5442,33.5402,,33.5418,33.5430,5.5809,,5.8138,5.8142,4.3125,,6.3540,5.2701,5.5422,243.228,253.4176,229.0184,187.949,429.3562,194.1324,211.5754,0.2042,,1.9819,1.0812,0.2914,,0.0000,0.774,24.7250,,24.7146,,0.7961,81.9534,,8.191,,1.8874E+03,,2.7900E+00,,15.5668,15.6001,0.0457,,98.270,75.983,21,17.682,,5.985,261.19,1.145,0.159,0.0,0.027,0.05,0.13,0.52
CalCOFI,2007SR,010,11,2007_010d,14-Jul-2020 21:53:31,14-Jul-2020 13:53:31,32.01350,-119.23378,093.3 055.0,093.3,055.0,22.000,22.156,,15.3659,,15.3667,,15.3663,33.5338,,33.5340,33.5343,,33.5359,33.5350,5.5799,,5.8127,5.8131,4.3284,,6.3920,5.3047,5.5589,243.177,253.3644,228.9714,188.636,429.2314,195.3608,212.1661,0.1836,,1.7381,1.0562,0.2990,,0.0000,0.986,24.7624,,24.7626,,0.7757,82.3716,,8.187,,1.9116E+03,,2.5306E+00,,15.3626,15.3634,0.0490,,97.851,75.906,,,,,,,,,,,,
CalCOFI,2007SR,010,11,2007_010d,14-Jul-2020 21:53:33,14-Jul-2020 13:53:33,32.01350,-119.23378,093.3 055.0,093.3,055.0,23.000,23.163,,15.3214,,15.3160,,15.3187,33.5319,,33.5321,33.5319,,33.5335,33.5328,5.5791,,5.8119,5.8123,4.3291,,6.3937,5.3062,5.5593,243.140,253.3257,228.9373,188.665,429.1409,195.4126,212.1750,0.1770,,1.6600,1.0422,0.3060,,0.0000,1.182,24.7707,,24.7719,,0.7723,82.4420,,8.183,,1.9098E+03,,2.3669E+00,,15.3179,15.3125,0.0522,,97.750,75.841,,,,,,,,,,,,
CalCOFI,2007SR,010,11,2007_010d,14-Jul-2020 21:53:35,14-Jul-2020 13:53:35,32.01350,-119.23378,093.3 055.0,093.3,055.0,24.000,24.170,,15.2258,,15.2241,,15.2250,33.5267,,33.5269,33.5267,,33.5283,33.5276,5.5790,,5.8118,5.8122,4.3325,,6.4018,5.3136,5.5629,243.130,253.3153,228.9281,188.808,429.1165,195.6684,212.2983,0.1835,,1.7369,1.0560,0.3137,,0.0000,1.397,24.7877,,24.7881,,0.7701,82.4872,,8.181,,1.8820E+03,,2.1579E+00,,15.2222,15.2204,0.0554,,97.559,75.759,,,,,,,,,,,,
CalCOFI,2007SR,010,11,2007_010d,14-Jul-2020 21:53:37,14-Jul-2020 13:53:37,32.01350,-119.23378,093.3 055.0,093.3,055.0,25.000,25.177,,15.1811,,15.2094,,15.1953,33.5266,,33.5268,33.5307,,33.5323,33.5296,5.4881,,5.7168,5.7171,4.3383,,6.4156,5.3262,5.5217,239.168,249.1794,225.2777,189.062,419.4260,196.1225,210.7001,0.1732,,1.6151,1.0329,0.3275,,0.0000,1.782,24.7975,,24.7944,,0.7638,82.6168,,8.175,,1.8693E+03,,1.8935E+00,,15.1774,15.2057,0.0585,,95.885,75.841,,,,,,,,,,,,
CalCOFI,2007SR,010,11,2007_010d,14-Jul-2020 21:53:40,14-Jul-2020 13:53:40,32.01350,-119.23378,093.3 055.0,093.3,055.0,26.000,26.184,,14.9378,,14.9348,,14.9363,33.4986,,33.4988,33.4941,,33.4957,33.4973,5.4477,,5.6746,5.6748,4.3605,,6.4686,5.3745,5.5247,237.400,247.3338,223.6488,190.024,415.1017,197.8427,210.7458,0.1634,,1.4993,1.0043,0.3416,,0.0000,2.175,24.8288,,24.8260,,0.7555,82.7890,,8.171,,1.8638E+03,,1.7173E+00,,14.9339,14.9310,0.0617,,94.702,75.796,,,,,,,,,,,,
CalCOFI,2007SR,010,11,2007_010d,14-Jul-2020 21:53:41,14-Jul-2020 13:53:41,32.01350,-119.23378,093.3 055.0,093.3,055.0,27.000,27.191,,14.6368,,14.6284,,14.6326,33.4804,,33.4806,33.4807,,33.4823,33.4815,5.4500,,5.6770,5.6772,4.3821,,6.5202,5.4215,5.5494,237.486,247.4235,223.7280,190.953,415.3120,199.5039,211.6160,0.1595,,1.4532,0.9911,0.3510,,0.0000,2.438,24.8796,,24.8816,,0.7495,82.9125,,8.166,,1.8469E+03,,1.5645E+00,,14.6328,14.6244,0.0648,,94.162,75.699,,,,,,,,,,,,
CalCOFI,2007SR,010,11,2007_010d,14-Jul-2020 21:53:43,14-Jul-2020 13:53:43,32.01350,-119.23378,093.3 055.0,093.3,055.0,28.000,28.198,,14.4994,,14.4974,,14.4984,33.4734,,33.4736,33.4735,,33.4751,33.4744,5.4399,,5.6665,5.6666,4.3887,,6.5359,5.4358,5.5512,237.042,246.9600,223.3189,191.238,414.2261,200.0135,211.6662,0.1512,,1.3552,0.9598,0.3614,,0.0000,2.728,24.9035,,24.9040,,0.7476,82.9522,,8.160,,1.8340E+03,,1.4124E+00,,14.4953,14.4934,0.0679,,93.725,75.611,,,,,,,,,,,,
CalCOFI,2007SR,010,11,2007_010d,14-Jul-2020 21:53:45,14-Jul-2020 13:53:45,32.01350,-119.23378,093.3 055.0,093.3,055.0,29.000,29.206,,14.4016,,14.4014,,14.4015,33.4699,,33.4701,33.4711,,33.4727,33.4714,5.4195,,5.6451,5.6453,4.3907,,6.5407,5.4402,5.5428,236.149,246.0278,222.4962,191.322,412.0419,200.1637,211.3300,0.1483,,1.3209,0.9477,0.3729,,0.2315,3.049,24.9215,,24.9225,,0.7412,83.0857,,8.153,,1.8342E+03,,1.2920E+00,,14.3974,14.3972,0.0709,,93.188,75.499,,,,,,,,,,,,
CalCOFI,2007SR,010,11,2007_010d,14-Jul-2020 21:53:47,14-Jul-2020 13:53:47,32.01350,-119.23378,093.3 055.0,093.3,055.0,30.000,30.213,,14.2727,,14.2549,,14.2638,33.4627,,33.4629,33.4629,,33.4645,33.4637,5.4230,,5.6488,5.6490,4.3928,,6.5457,5.4447,5.5469,236.299,246.1844,222.6344,191.405,412.4088,200.3121,211.4733,0.1501,,1.3422,0.9553,0.3873,,0.6358,3.451,24.9431,,24.9470,,0.7345,83.2244,,8.146,,1.8393E+03,,1.1825E+00,,14.2684,14.2506,0.0740,,93.003,75.307,,,,,,,,,,,,
CalCOFI,2007SR,010,11,2007_010d,14-Jul-2020 21:53:49,14-Jul-2020 13:53:49,32.01350,-119.23378,093.3 055.0,093.3,055.0,31.000,31.220,,14.1996,,14.2012,,14.2004,33.4639,,33.4641,33.4651,,33.4667,33.4654,5.4107,,5.6359,5.6361,4.3894,,6.5376,5.4373,5.5367,235.758,245.6197,222.1359,191.256,411.0856,200.0457,211.0908,0.1435,,1.2643,0.9266,0.3985,,0.9503,3.763,24.9595,,24.9601,,0.7306,83.3049,,8.141,,1.8336E+03,,1.0536E+00,,14.1951,14.1967,0.0770,,92.655,75.168,,,,,,,,,,,,
CalCOFI,2007SR,010,11,2007_010d,14-Jul-2020 21:53:51,14-Jul-2020 13:53:51,32.01350,-119.23378,093.3 055.0,093.3,055.0,32.000,32.227,,14.1655,,14.1461,,14.1558,33.4641,,33.4643,33.4668,,33.4684,33.4664,5.3521,,5.5747,5.5748,4.3871,,6.5321,5.4323,5.5036,233.203,242.9525,219.7819,191.154,404.8364,199.8633,209.8226,0.1437,,1.2666,0.9275,0.4092,,1.2508,4.062,24.9668,,24.9729,,0.7268,83.3847,,8.136,,1.8087E+03,,9.4309E-01,,14.1609,14.1415,0.0800,,91.589,75.047,32,14.077,33.4612,,245.17,0.626,0.427,3.69,0.378,0.37,0.53,3.18
CalCOFI,2007SR,010,11,2007_010d,14-Jul-2020 21:53:53,14-Jul-2020 13:53:53,32.01350,-119.23378,093.3 055.0,093.3,055.0,33.000,33.234,,14.0511,,14.0538,,14.0525,33.4660,,33.4662,33.4671,,33.4687,33.4675,5.3161,,5.5371,5.5371,4.3914,,6.5424,5.4417,5.4894,231.626,241.3063,218.3289,191.338,400.9793,200.1923,209.2606,0.1336,,1.1474,0.8781,0.4180,,1.4979,4.307,24.9921,,24.9925,,0.7237,83.4500,,8.132,,1.8019E+03,,8.7554E-01,,14.0464,14.0490,0.0830,,90.762,74.980,,,,,,,,,,,,
CalCOFI,2007SR,010,11,2007_010d,14-Jul-2020 21:53:55,14-Jul-2020 13:53:55,32.01350,-119.23378,093.3 055.0,093.3,055.0,34.000,34.241,,13.8883,,13.8989,,13.8936,33.4633,,33.4635,33.4633,,33.4649,33.4642,5.3352,,5.5571,5.5571,4.3976,,6.5572,5.4552,5.5062,232.454,242.1706,219.0918,191.602,403.0045,200.6643,209.8781,0.1264,,1.0625,0.8388,0.4240,,1.6663,4.475,25.0238,,25.0216,,0.7155,83.6208,,8.128,,1.7979E+03,,8.1124E-01,,13.8835,13.8941,0.0860,,90.787,74.848,,,,,,,,,,,,
CalCOFI,2007SR,010,11,2007_010d,14-Jul-2020 21:53:57,14-Jul-2020 13:53:57,32.01350,-119.23378,093.3 055.0,093.3,055.0,35.000,35.249,,13.7730,,13.7720,,13.7725,33.4654,,33.4656,33.4668,,33.4684,33.4670,5.3292,,5.5508,5.5508,4.3991,,6.5608,5.4584,5.5046,232.185,241.8898,218.8440,191.661,402.3466,200.7698,209.8069,0.1201,,0.9882,0.8015,0.4332,,1.9247,4.732,25.0493,,25.0505,,0.7112,83.7106,,8.124,,1.7864E+03,,7.3249E-01,,13.7680,13.7671,0.0889,,90.473,74.682,,,,,,,,,,,,
CalCOFI,2007SR,010,11,2007_010d,14-Jul-2020 21:53:59,14-Jul-2020 13:53:59,32.01350,-119.23378,093.3 055.0,093.3,055.0,36.000,36.256,,13.7593,,13.7590,,13.7592,33.4669,,33.4671,33.4680,,33.4696,33.4684,5.1023,,5.3137,5.3134,4.4065,,6.5784,5.4745,5.3940,222.300,231.5709,209.7365,191.983,378.1692,201.3456,205.5411,0.1157,,0.9363,0.7739,0.4554,,2.5480,5.351,25.0532,,25.0541,,0.7068,83.8029,,8.118,,1.7735E+03,,6.2661E-01,,13.7542,13.7539,0.0919,,86.599,74.788,,,,,,,,,,,,
CalCOFI,2007SR,010,11,2007_010d,14-Jul-2020 21:54:02,14-Jul-2020 13:54:02,32.01350,-119.23378,093.3 055.0,093.3,055.0,37.000,37.263,,13.4141,,13.4240,,13.4191,33.4498,,33.4500,33.4481,,33.4497,33.4499,4.9196,,5.1228,5.1222,4.4363,,6.6496,5.5393,5.3308,214.327,223.2479,202.3905,193.272,358.6684,203.6505,203.0205,0.1014,,0.7678,0.6754,0.4798,,3.2332,6.032,25.1102,,25.1068,,0.6951,84.0487,,8.111,,1.7796E+03,,5.5287E-01,,13.4090,13.4189,0.0948,,82.903,74.771,,,,,,,,,,,,
CalCOFI,2007SR,010,11,2007_010d,14-Jul-2020 21:54:03,14-Jul-2020 13:54:03,32.01350,-119.23378,093.3 055.0,093.3,055.0,38.000,38.270,,13.0240,,13.0311,,13.0276,33.4566,,33.4568,33.4563,,33.4579,33.4574,4.8563,,5.0566,5.0560,4.4673,,6.7236,5.6068,5.3314,211.554,220.3531,199.8356,194.608,351.8861,206.0394,202.9375,0.0930,,0.6689,0.6112,0.5002,,3.8060,6.601,25.1936,,25.1920,,0.6867,84.2261,,8.101,,1.7764E+03,,5.1817E-01,,13.0188,13.0260,0.0976,,81.185,74.693,,,,,,,,,,,,
CalCOFI,2007SR,010,11,2007_010d,14-Jul-2020 21:54:05,14-Jul-2020 13:54:05,32.01350,-119.23378,093.3 055.0,093.3,055.0,39.000,39.277,,12.7618,,12.7733,,12.7676,33.4497,,33.4499,33.4500,,33.4516,33.4508,4.8331,,5.0324,5.0317,4.4737,,6.7389,5.6207,5.3262,210.531,219.2852,198.8931,194.878,349.3839,206.5222,202.7077,0.0860,,0.5865,0.5541,0.5232,,4.4519,7.243,25.2399,,25.2378,,0.6792,84.3832,,8.089,,1.7641E+03,,4.7520E-01,,12.7566,12.7681,0.1004,,80.356,74.399,,,,,,,,,,,,
CalCOFI,2007SR,010,11,2007_010d,14-Jul-2020 21:54:07,14-Jul-2020 13:54:07,32.01350,-119.23378,093.3 055.0,093.3,055.0,40.000,40.285,,12.5466,,12.5486,,12.5476,33.4548,,33.4550,33.4554,,33.4570,33.4560,4.8550,,5.0553,5.0546,4.4744,,6.7405,5.6222,5.3384,211.477,220.2727,199.7647,194.899,351.6977,206.5598,203.1623,0.0801,,0.5171,0.5034,0.5454,,5.0752,7.863,25.2857,,25.2858,,0.6732,84.5094,,8.079,,1.7621E+03,,4.3043E-01,,12.5413,12.5434,0.1031,,80.363,74.067,,,,,,,,,,,,
CalCOFI,2007SR,010,11,2007_010d,14-Jul-2020 21:54:10,14-Jul-2020 13:54:10,32.01350,-119.23378,093.3 055.0,093.3,055.0,41.000,41.292,,12.5490,,12.5410,,12.5450,33.4699,,33.4701,33.4712,,33.4728,33.4715,4.7644,,4.9606,4.9598,4.4481,,6.6777,5.5650,5.2624,207.530,216.1525,196.1282,193.751,342.0439,204.5070,200.3176,0.0759,,0.4677,0.4659,0.5771,,5.9654,8.747,25.2970,,25.2996,,0.6730,84.5142,,8.065,,1.7756E+03,,3.8066E-01,,12.5436,12.5356,0.1058,,78.876,73.627,41,12.580,,, ,,,,,,,
CalCOFI,2007SR,010,11,2007_010d,14-Jul-2020 21:54:12,14-Jul-2020 13:54:12,32.01350,-119.23378,093.3 055.0,093.3,055.0,42.000,42.299,,12.4968,,12.4952,,12.4960,33.4893,,33.4895,33.4915,,33.4931,33.4913,4.6658,,4.8576,4.8567,4.4268,,6.6269,5.5187,5.1877,203.230,211.6637,192.1664,192.818,331.5267,202.8387,197.5026,0.0752,,0.4594,0.4596,0.6037,,6.7123,9.490,25.3222,,25.3242,,0.6717,84.5415,,8.056,,1.7852E+03,,3.3992E-01,,12.4912,12.4897,0.1085,,77.169,73.214,,,,,,,,,,,,
CalCOFI,2007SR,010,11,2007_010d,14-Jul-2020 21:54:14,14-Jul-2020 13:54:14,32.01350,-119.23378,093.3 055.0,093.3,055.0,43.000,43.306,,12.4549,,12.4577,,12.4563,33.5019,,33.5021,33.5028,,33.5044,33.5033,4.6251,,4.8151,4.8141,4.4128,,6.5935,5.4882,5.1512,201.451,209.8066,190.5273,192.207,327.1756,201.7462,196.1368,0.0731,,0.4347,0.4403,0.6178,,7.1082,9.883,25.3401,,25.3402,,0.6710,84.5562,,8.049,,1.7840E+03,,3.1172E-01,,12.4492,12.4520,0.1111,,76.434,72.931,,,,,,,,,,,,
CalCOFI,2007SR,010,11,2007_010d,14-Jul-2020 21:54:15,14-Jul-2020 13:54:15,32.01351,-119.23378,093.3 055.0,093.3,055.0,44.000,44.314,,12.3648,,12.3676,,12.3662,33.5050,,33.5052,33.5058,,33.5074,33.5063,4.6219,,4.8117,4.8107,4.4010,,6.5653,5.4626,5.1367,201.309,209.6584,190.3965,191.689,326.8282,200.8199,195.6082,0.0703,,0.4018,0.4141,0.6274,,7.3778,10.151,25.3598,,25.3599,,0.6676,84.6277,,8.044,,1.7778E+03,,2.7543E-01,,12.3590,12.3618,0.1138,,76.240,72.601,,,,,,,,,,,,
CalCOFI,2007SR,010,11,2007_010d,14-Jul-2020 21:54:17,14-Jul-2020 13:54:17,32.01352,-119.23378,093.3 055.0,093.3,055.0,45.000,45.321,,12.2975,,12.2946,,12.2961,33.5108,,33.5110,33.5154,,33.5170,33.5140,4.6171,,4.8067,4.8057,4.3862,,6.5300,5.4304,5.1181,201.098,209.4381,190.2020,191.037,326.3122,199.6541,194.9281,0.0686,,0.3818,0.3980,0.6350,,7.5912,10.363,25.3772,,25.3814,,0.6656,84.6707,,8.037,,1.7766E+03,,2.3200E-01,,12.2916,12.2887,0.1164,,76.057,72.250,,,,,,,,,,,,
CalCOFI,2007SR,010,11,2007_010d,14-Jul-2020 21:54:20,14-Jul-2020 13:54:20,32.01350,-119.23378,093.3 055.0,093.3,055.0,46.000,46.328,,12.2788,,12.2854,,12.2821,33.5097,,33.5099,33.5107,,33.5123,33.5111,4.5896,,4.7780,4.7769,4.3588,,6.4646,5.3708,5.0739,199.900,208.1875,189.0983,189.846,323.3820,197.5244,193.3114,0.0660,,0.3513,0.3729,0.6477,,7.9478,10.717,25.3799,,25.3794,,0.6646,84.6912,,8.030,,1.7697E+03,,1.6775E-01,,12.2728,12.2794,0.1190,,75.574,71.784,,,,,,,,,,,,
CalCOFI,2007SR,010,11,2007_010d,14-Jul-2020 21:54:22,14-Jul-2020 13:54:22,32.01352,-119.23378,093.3 055.0,093.3,055.0,47.000,47.335,,12.1999,,12.1992,,12.1996,33.5039,,33.5041,33.5057,,33.5073,33.5057,4.5671,,4.7545,4.7534,4.3429,,6.4266,5.3362,5.0448,198.915,207.1593,188.1908,189.153,320.9729,196.2852,192.2380,0.0658,,0.3489,0.3710,0.6560,,8.1808,10.949,25.3905,,25.3921,,0.6640,84.7039,,8.027,,1.7638E+03,,1.1878E-01,,12.1938,12.1931,0.1216,,75.076,71.391,,,,,,,,,,,,
CalCOFI,2007SR,010,11,2007_010d,14-Jul-2020 21:54:24,14-Jul-2020 13:54:24,32.01352,-119.23379,093.3 055.0,093.3,055.0,48.000,48.343,,12.1755,,12.1782,,12.1769,33.5046,,33.5048,33.5060,,33.5076,33.5062,4.5663,,4.7536,4.7526,4.3296,,6.3949,5.3073,5.0300,198.879,207.1217,188.1576,188.572,320.8848,195.2464,191.7020,0.0655,,0.3454,0.3681,0.6615,,8.3353,11.103,25.3957,,25.3963,,0.6631,84.7240,,8.024,,1.7571E+03,,9.9570E-02,,12.1693,12.1720,0.1242,,75.025,71.141,,,,,,,,,,,,
CalCOFI,2007SR,010,11,2007_010d,14-Jul-2020 21:54:25,14-Jul-2020 13:54:25,32.01352,-119.23380,093.3 055.0,093.3,055.0,49.000,49.350,,12.1116,,12.1105,,12.1111,33.5047,,33.5049,33.5065,,33.5081,33.5065,4.5647,,4.7520,4.7509,4.3216,,6.3758,5.2899,5.0204,198.808,207.0476,188.0922,188.219,320.7112,194.6151,191.3537,0.0637,,0.3242,0.3504,0.6683,,8.5262,11.292,25.4079,,25.4096,,0.6620,84.7477,,8.021,,1.7400E+03,,8.1167E-02,,12.1053,12.1042,0.1268,,74.899,70.908,,,,,,,,,,,,
CalCOFI,2007SR,010,11,2007_010d,14-Jul-2020 21:54:28,14-Jul-2020 13:54:28,32.01352,-119.23380,093.3 055.0,093.3,055.0,50.000,50.357,,12.1127,,12.1023,,12.1075,33.5070,,33.5072,33.5071,,33.5087,33.5080,4.5207,,4.7060,4.7048,4.2975,,6.3182,5.2375,4.9712,196.891,205.0464,186.3259,187.169,316.0225,192.7376,189.5318,0.0631,,0.3172,0.3445,0.6783,,8.8070,11.571,25.4095,,25.4116,,0.6621,84.7441,,8.018,,1.7223E+03,,5.2492E-02,,12.1063,12.0958,0.1294,,74.179,70.501,,,,,,,,,,,,
CalCOFI,2007SR,010,11,2007_010d,14-Jul-2020 21:54:30,14-Jul-2020 13:54:30,32.01352,-119.23380,093.3 055.0,093.3,055.0,51.000,51.364,,12.0395,,12.0411,,12.0403,33.5026,,33.5028,33.5044,,33.5060,33.5044,4.5077,,4.6924,4.6912,4.2852,,6.2889,5.2108,4.9510,196.322,204.4524,185.8017,186.635,314.6308,191.7828,188.7923,0.0618,,0.3019,0.3315,0.6870,,9.0513,11.814,25.4200,,25.4211,,0.6600,84.7893,,8.015,,1.7360E+03,,9.4678E-03,,12.0329,12.0346,0.1320,,73.850,70.209,,,,,,,,,,,,
CalCOFI,2007SR,010,11,2007_010d,14-Jul-2020 21:54:31,14-Jul-2020 13:54:31,32.01352,-119.23380,093.3 055.0,093.3,055.0,52.000,52.372,,11.9704,,11.9750,,11.9727,33.5002,,33.5004,33.5007,,33.5023,33.5014,4.5110,,4.6958,4.6947,4.2780,,6.2717,5.1951,4.9449,196.467,204.6038,185.9353,186.317,314.9854,191.2142,188.5748,0.0611,,0.2936,0.3245,0.6936,,9.2367,11.998,25.4312,,25.4307,,0.6579,84.8330,,8.012,,1.7373E+03,,8.5187E-04,,11.9638,11.9683,0.1346,,73.797,69.992,52,12.010,33.5166,4.530,197.70,0.190,0.186,12.74,0.043,0.00,1.08,9.89
CalCOFI,2007SR,010,11,2007_010d,14-Jul-2020 21:54:34,14-Jul-2020 13:54:34,32.01352,-119.23380,093.3 055.0,093.3,055.0,53.000,53.379,,11.9409,,11.9454,,11.9432,33.5033,,33.5035,33.5050,,33.5066,33.5051,4.3876,,4.5669,4.5656,4.2689,,6.2499,5.1753,4.8705,191.090,198.9908,180.9812,185.921,301.8340,190.5061,185.7437,0.0587,,0.2654,0.3002,0.7114,,9.7365,12.495,25.4392,,25.4396,,0.6571,84.8506,,8.008,,1.7133E+03,,-6.152E-06,,11.9341,11.9386,0.1371,,71.735,69.802,,,,,,,,,,,,
CalCOFI,2007SR,010,11,2007_010d,14-Jul-2020 21:54:37,14-Jul-2020 13:54:37,32.01352,-119.23380,093.3 055.0,093.3,055.0,54.000,54.386,,11.7105,,11.7317,,11.7211,33.4987,,33.4989,33.4961,,33.4977,33.4983,4.2162,,4.3878,4.3862,4.2719,,6.2571,5.1818,4.7840,183.619,191.1918,174.0978,186.045,283.5610,190.7278,182.4128,0.0617,,0.3007,0.3305,0.7323,,10.3233,13.078,25.4786,,25.4726,,0.6542,84.9128,,8.003,,1.7249E+03,,1.0000E-12,,11.7037,11.7248,0.1397,,68.597,69.533,,,,,,,,,,,,
CalCOFI,2007SR,010,11,2007_010d,14-Jul-2020 21:54:38,14-Jul-2020 13:54:38,32.01352,-119.23380,093.3 055.0,093.3,055.0,55.000,55.393,,11.5951,,11.6046,,11.5999,33.5153,,33.5155,33.5147,,33.5163,33.5159,4.1638,,4.3331,4.3314,4.2724,,6.2583,5.1829,4.7572,181.331,188.8033,171.9898,186.056,277.9649,190.7475,181.3687,0.0547,,0.2184,0.2588,0.7419,,10.5929,13.346,25.5128,,25.5106,,0.6530,84.9371,,7.997,,1.7253E+03,,1.0000E-12,,11.5882,11.5977,0.1422,,67.587,69.362,,,,,,,,,,,,